Temp
-4 -4 -4 -3 -3 -3 -2 -2 -2 -1 -0 -1 -2 -1 -1 -1 -1 -1 1 1 1 1 2 3 3 3 4 4 4 4 4 4 3 3 2 2 3 3 3 1 0 1 2 1
-5 -4 -4 -4 -4 -3 -3 -3 -2 -2 -1 -3 -2 -2 -1 -2 -2 -1 -1 -0 0 1 1 1 2 3 3 3 3 3 3 2 2 1 1 1 1 2 2 2 2 2 0 2
-5 -5 -5 -4 -4 -4 -3 -4 -3 -3 -3 -3 -3 -3 -2 -2 -2 -2 -2 -1 -0 -0 0 1 1 1 2 2 2 2 2 2 2 2 2 2 1 -0 -0 0 1 2 2 2
-6 -5 -5 -5 -5 -4 -4 -4 -4 -3 -2 -2 -3 -2 -2 -2 -3 -2 -2 -2 -1 -0 0 0 0 1 1 1 1 1 1 1 1 1 0 1 1 1 0 0 1 1 2 1
-6 -6 -6 -5 -6 -5 -5 -4 -4 -3 -2 -2 -2 -3 -2 -3 -2 -3 -1 -2 -1 -1 -1 -1 -0 -0 -1 -0 0 0 0 -0 0 0 0 0 -1 -0 0 0 1 1 2 1
-6 -6 -6 -6 -6 -7 -4 -4 -4 -4 -3 -4 -3 -3 -2 -3 -2 -2 -2 -2 -2 -2 -1 -1 -2 -2 -1 -1 -1 -1 -1 -1 -0 -1 -1 -1 -1 1 1 2 2 2 1 2
-6 -6 -6 -6 -7 -7 -6 -4 -5 -5 -4 -4 -4 -3 -3 -3 -2 -3 -2 -2 -2 -1 -2 -2 -2 -2 -1 -1 -1 -1 -1 -1 -2 -1 -1 -2 1 0 1 1 2 1 1 1
-6 -6 -6 -6 -6 -8 -8 -6 -6 -5 -5 -5 -4 -4 -3 -4 -3 -3 -3 -3 -3 -3 -3 -3 -2 -2 -1 0 0 -0 -0 -1 -2 -1 -1 -1 -0 1 1 1 1 0 0 -1
-7 -7 -7 -7 -6 -8 -8 -8 -7 -7 -6 -6 -5 -5 -5 -4 -4 -3 -3 -3 -3 -3 -3 -3 -3 -3 -2 -1 -1 1 -0 -1 -2 -2 -2 -2 0 -0 -0 -0 -1 0 -0 -1
-7 -7 -7 -7 -7 -8 -8 -8 -8 -8 -7 -7 -6 -5 -4 -4 -4 -4 -3 -3 -3 -4 -3 -2 -4 -4 -3 -2 -1 -1 -0 -1 -2 -2 -2 -1 -1 -1 -1 -2 -1 -2 -2 -2
-7 -7 -7 -7 -7 -8 -8 -7 -7 -8 -7 -7 -7 -6 -6 -5 -5 -4 -3 -4 -4 -3 -4 -3 -4 -3 -3 -3 -2 -2 -1 -1 -1 -2 -3 -2 -1 -1 -2 -2 -3 -3 -3 -4
-8 -8 -8 -8 -8 -8 -8 -7 -7 -8 -8 -7 -7 -7 -6 -6 -5 -5 -4 -4 -4 -4 -3 -3 -3 -3 -3 -3 -3 -2 -2 -1 -1 -1 -1 -0 -2 -2 -2 -2 -3 -3 -4 -5
-9 -9 -8 -8 -8 -8 -8 -8 -8 -7 -7 -7 -8 -7 -7 -7 -6 -5 -4 -4 -4 -4 -3 -3 -3 -4 -3 -3 -3 -2 -2 -2 -2 -2 -2 -2 -2 -2 -2 -3 -3 -4 -5 -6
-10 -9 -9 -9 -9 -8 -8 -8 -7 -7 -7 -8 -8 -8 -7 -7 -7 -6 -6 -5 -4 -4 -3 -3 -3 -4 -3 -3 -3 -3 -3 -3 -3 -2 -2 -2 -2 -3 -3 -4 -4 -5 -5 -6
-9 -9 -9 -9 -9 -9 -9 -8 -8 -8 -7 -8 -8 -8 -8 -8 -6 -6 -6 -6 -6 -4 -4 -4 -4 -4 -4 -4 -4 -4 -3 -3 -3 -2 -2 -2 -3 -3 -4 -5 -6 -5 -6 -7
-9 -9 -9 -9 -9 -9 -8 -8 -8 -8 -7 -8 -8 -8 -8 -8 -7 -7 -6 -6 -5 -6 -5 -5 -5 -5 -5 -5 -5 -4 -3 -3 -3 -3 -3 -3 -3 -4 -5 -6 -5 -6 -7 -7
-9 -9 -9 -9 -9 -8 -8 -8 -7 -7 -8 -8 -8 -8 -8 -7 -8 -7 -7 -6 -6 -6 -6 -6 -5 -5 -5 -5 -5 -4 -2 -3 -3 -4 -4 -3 -4 -5 -6 -5 -6 -7 -7 -7
-9 -9 -9 -9 -9 -9 -8 -8 -8 -8 -8 -8 -8 -8 -8 -7 -7 -7 -7 -6 -6 -6 -7 -6 -5 -6 -5 -5 -3 -2 -2 -2 -3 -3 -3 -4 -5 -6 -6 -6 -7 -7 -7 -7
-9 -9 -9 -9 -8 -8 -8 -8 -8 -8 -8 -8 -8 -8 -8 -8 -7 -7 -6 -7 -5 -6 -6 -6 -6 -5 -5 -4 -2 -2 -2 -2 -3 -4 -5 -5 -6 -6 -6 -7 -7 -7 -7 -7
-9 -9 -9 -8 -8 -8 -9 -8 -8 -8 -8 -7 -7 -8 -8 -7 -7 -7 -7 -6 -6 -6 -5 -5 -5 -3 -2 -2 -1 -2 -2 -2 -3 -5 -5 -6 -6 -7 -7 -7 -7 -7 -7 -8
-9 -8 -8 -8 -8 -9 -8 -8 -8 -8 -8 -8 -8 -8 -7 -7 -7 -7 -8 -7 -7 -6 -6 -6 -6 -4 -1 -1 -1 -1 -1 -2 -5 -5 -5 -6 -7 -7 -7 -7 -7 -7 -8 -8
-8 -8 -8 -8 -8 -8 -8 -8 -8 -8 -7 -8 -8 -8 -8 -7 -7 -7 -8 -7 -7 -5 -7 -7 -6 -2 -1 -2 -1 -1 -1 -3 -5 -6 -5 -7 -7 -7 -6 -7 -7 -7 -8 -10
-8 -8 -9 -8 -8 -8 -8 -8 -7 -7 -7 -7 -7 -7 -8 -8 -8 -8 -8 -7 -7 -7 -8 -6 -4 -3 -2 -2 -1 -1 -2 -4 -5 -5 -5 -7 -7 -6 -7 -7 -7 -8 -9 -9
-8 -8 -8 -7 -8 -8 -7 -7 -6 -6 -6 -6 -6 -6 -6 -7 -8 -8 -8 -7 -8 -9 -8 -4 -3 -2 -1 -0 -0 -1 -2 -4 -5 -5 -6 -7 -6 -7 -7 -7 -8 -9 -9 -10
-8 -8 -8 -7 -7 -6 -6 -6 -6 -6 -5 -4 -5 -6 -7 -8 -8 -8 -8 -7 -8 -6 -5 -3 -2 -1 -0 -0 -1 -2 -5 -5 -5 -6 -6 -6 -7 -7 -7 -8 -9 -9 -9 -10
-8 -7 -7 -6 -6 -5 -5 -5 -5 -5 -4 -5 -7 -9 -9 -8 -8 -8 -7 -8 -5 -3 -2 -2 -1 -0 -0 -1 -2 -4 -6 -7 -6 -6 -6 -6 -7 -7 -7 -8 -8 -9 -10 -10
-7 -6 -6 -6 -5 -4 -4 -4 -4 -5 -4 -5 -6 -8 -7 -8 -8 -7 -7 -6 -4 -3 -2 -2 -1 -1 -1 -2 -3 -4 -6 -6 -6 -6 -6 -6 -7 -8 -8 -8 -9 -9 -9 -10
Height
3006 3013 3020 3027 3032 3037 3044 3048 3053 3062 3066 3071 3068 3066 3074 3079 3085 3091 3098 3099 3102 3104 3105 3107 3111 3113 3112 3112 3112 3111 3112 3111 3111 3114 3113 3114 3113 3114 3114 3113 3115 3114 3104 3093
2998 3005 3012 3019 3025 3032 3039 3042 3050 3055 3059 3058 3058 3064 3069 3076 3082 3086 3092 3095 3098 3101 3104 3107 3107 3108 3110 3110 3110 3109 3109 3108 3108 3109 3112 3113 3112 3112 3110 3108 3107 3102 3102 3087
2992 2998 3006 3012 3018 3026 3034 3039 3044 3049 3050 3051 3057 3061 3063 3068 3073 3080 3087 3091 3095 3099 3100 3101 3104 3105 3106 3106 3107 3107 3107 3106 3107 3108 3107 3107 3107 3106 3106 3103 3102 3098 3090 3074
2983 2991 2998 3005 3011 3019 3026 3029 3032 3037 3038 3041 3048 3054 3057 3063 3069 3076 3081 3085 3091 3094 3094 3096 3098 3101 3102 3102 3103 3103 3104 3102 3102 3102 3104 3103 3100 3097 3099 3096 3093 3094 3076 3078
2975 2984 2991 2996 3004 3011 3016 3019 3026 3031 3033 3037 3044 3049 3054 3059 3065 3071 3076 3080 3087 3089 3088 3093 3095 3095 3097 3097 3099 3099 3099 3098 3097 3095 3098 3096 3089 3089 3087 3086 3083 3081 3075 3068
2967 2974 2983 2989 2996 3001 2999 3013 3019 3024 3030 3035 3040 3041 3048 3055 3062 3066 3072 3077 3081 3083 3087 3087 3088 3088 3090 3091 3092 3094 3096 3095 3093 3087 3091 3090 3078 3074 3075 3074 3073 3073 3070 3065
2957 2965 2974 2980 2988 2992 2997 3005 3014 3019 3022 3029 3034 3040 3046 3050 3058 3065 3069 3073 3075 3080 3082 3083 3083 3083 3083 3083 3085 3088 3089 3090 3091 3086 3088 3081 3068 3067 3068 3067 3066 3066 3062 3059
2947 2956 2965 2973 2980 2987 2991 2998 3007 3013 3018 3026 3032 3036 3042 3050 3056 3060 3064 3067 3072 3076 3077 3078 3078 3078 3077 3077 3078 3080 3082 3084 3085 3083 3081 3071 3063 3066 3065 3062 3059 3060 3057 3055
2936 2946 2956 2965 2973 2981 2987 2992 3001 3011 3015 3020 3027 3031 3037 3043 3049 3054 3056 3063 3069 3072 3074 3075 3073 3074 3074 3074 3072 3075 3075 3078 3081 3078 3076 3067 3057 3059 3059 3058 3050 3052 3051 3047
2926 2936 2946 2957 2965 2975 2982 2985 2995 3005 3008 3015 3023 3028 3033 3039 3043 3047 3052 3059 3064 3067 3068 3067 3069 3068 3070 3069 3067 3069 3070 3069 3071 3071 3070 3058 3054 3054 3053 3053 3049 3043 3042 3039
2915 2926 2937 2948 2957 2968 2975 2980 2989 2997 3003 3011 3017 3021 3028 3032 3037 3042 3048 3056 3057 3062 3062 3063 3063 3061 3063 3061 3062 3063 3064 3066 3063 3064 3063 3055 3049 3048 3049 3044 3039 3036 3034 3031
2906 2917 2927 2939 2950 2960 2970 2975 2982 2992 3000 3004 3013 3016 3022 3028 3033 3040 3043 3047 3051 3054 3056 3056 3057 3056 3056 3055 3054 3056 3056 3057 3058 3059 3051 3046 3043 3041 3039 3037 3033 3029 3028 3027
2896 2908 2919 2930 2940 2952 2961 2968 2976 2988 2992 2997 3004 3008 3016 3021 3027 3034 3039 3042 3045 3048 3050 3052 3051 3050 3049 3049 3045 3047 3047 3050 3049 3048 3043 3040 3036 3035 3034 3030 3026 3025 3023 3022
2887 2899 2910 2922 2933 2944 2955 2960 2968 2981 2987 2990 2994 3000 3009 3017 3021 3027 3031 3037 3040 3042 3043 3044 3044 3045 3043 3042 3041 3040 3042 3043 3043 3038 3035 3032 3032 3027 3025 3022 3021 3020 3019 3017
2879 2891 2902 2914 2927 2939 2950 2957 2963 2972 2983 2985 2991 2995 3001 3009 3017 3022 3025 3029 3032 3036 3037 3036 3037 3037 3039 3035 3032 3027 3032 3034 3034 3028 3029 3027 3022 3020 3017 3015 3015 3015 3014 3013
2872 2884 2895 2908 2921 2934 2944 2949 2956 2965 2977 2984 2987 2988 2994 3000 3007 3015 3019 3023 3024 3026 3027 3028 3029 3031 3036 3029 3019 3019 3025 3025 3024 3022 3021 3018 3015 3012 3011 3011 3011 3010 3009 3007
2866 2878 2891 2903 2915 2925 2932 2937 2942 2958 2971 2976 2980 2982 2988 2994 2999 3006 3011 3016 3015 3018 3019 3019 3021 3025 3025 3018 3009 3014 3018 3017 3016 3014 3013 3010 3008 3007 3007 3007 3006 3005 3004 3001
2861 2875 2888 2901 2913 2925 2929 2936 2944 2957 2966 2969 2972 2974 2983 2988 2992 2995 3001 3006 3010 3009 3011 3011 3013 3015 3013 3003 3004 3010 3009 3008 3008 3005 3004 3004 3002 3002 3003 3003 3002 3001 2999 2996
2859 2874 2888 2899 2906 2913 2921 2934 2946 2952 2958 2958 2961 2966 2975 2982 2988 2993 2997 2999 3001 3002 3001 3003 3006 3000 2991 2995 3002 3002 3003 3002 3000 2998 2997 2997 2997 2998 2999 2999 2998 2997 2994 2991
2858 2872 2880 2887 2895 2909 2921 2933 2939 2942 2944 2950 2954 2960 2968 2978 2982 2988 2994 2994 2995 2991 2991 2993 2988 2977 2982 2990 2995 2996 2995 2994 2992 2990 2991 2992 2993 2994 2994 2995 2994 2992 2988 2985
2850 2860 2874 2881 2893 2907 2917 2922 2927 2929 2934 2940 2946 2953 2961 2972 2978 2983 2986 2987 2988 2984 2982 2983 2972 2964 2973 2985 2985 2987 2987 2985 2984 2984 2984 2986 2988 2990 2990 2990 2988 2985 2983 2981
2846 2857 2869 2877 2892 2902 2905 2911 2915 2917 2924 2927 2936 2949 2960 2968 2974 2977 2980 2982 2981 2974 2971 2971 2962 2961 2971 2975 2978 2979 2977 2976 2976 2978 2980 2982 2984 2986 2986 2985 2983 2981 2979 2976
2851 2861 2868 2874 2881 2885 2890 2892 2902 2906 2910 2918 2931 2945 2955 2963 2968 2971 2974 2973 2969 2966 2962 2958 2954 2960 2965 2969 2970 2969 2969 2968 2970 2974 2976 2978 2980 2981 2981 2980 2979 2977 2974 2971
2846 2853 2862 2865 2871 2875 2877 2884 2893 2904 2914 2924 2933 2941 2948 2952 2959 2963 2964 2963 2961 2957 2952 2944 2949 2957 2961 2962 2961 2961 2962 2962 2966 2970 2972 2974 2976 2977 2976 2976 2974 2971 2969 2966
2846 2854 2858 2861 2868 2874 2883 2891 2900 2908 2916 2923 2929 2935 2940 2944 2950 2952 2954 2951 2946 2943 2940 2945 2949 2951 2952 2952 2952 2953 2955 2958 2962 2966 2968 2970 2972 2972 2972 2971 2969 2967 2964 2960
2847 2851 2855 2861 2870 2877 2883 2890 2899 2907 2913 2918 2924 2927 2932 2934 2937 2936 2936 2936 2936 2938 2940 2943 2944 2945 2946 2945 2946 2949 2951 2955 2960 2962 2965 2967 2968 2968 2967 2966 2964 2962 2958 2956
2849 2857 2862 2867 2873 2879 2885 2889 2896 2902 2908 2910 2914 2917 2922 2923 2925 2927 2927 2930 2933 2937 2938 2939 2940 2941 2940 2939 2940 2943 2947 2952 2957 2960 2962 2963 2964 2963 2962 2961 2959 2957 2954 2952
Wind_Speed
38 36 35 35 35 35 33 33 34 32 33 41 47 57 50 37 36 33 27 24 21 20 15 17 18 5 5 5 8 7 10 11 15 18 16 13 14 15 15 6 5 15 21 20
37 38 37 37 39 36 33 34 31 27 32 42 49 48 41 45 35 29 31 33 27 26 21 14 16 14 14 13 11 7 11 10 8 8 8 12 18 13 14 15 20 24 16 19
36 37 38 39 42 40 37 34 31 34 36 45 36 41 44 44 32 35 34 30 24 24 22 21 13 16 15 16 11 13 13 15 17 17 19 22 15 14 19 19 19 28 36 53
38 38 37 39 41 42 42 42 38 35 37 47 51 44 27 30 37 38 39 31 28 22 24 27 26 24 21 21 22 18 14 17 19 20 20 23 29 30 30 31 32 33 54 47
39 39 38 41 40 44 49 49 47 44 43 31 43 43 31 38 38 35 35 35 32 33 31 31 30 23 23 23 25 28 25 21 24 30 29 23 31 39 37 35 38 43 47 47
41 41 41 40 40 43 54 53 51 44 43 37 28 42 52 41 26 32 32 28 32 34 29 21 22 30 30 32 30 27 22 21 23 23 23 24 34 35 26 25 27 30 37 37
44 44 44 42 41 47 51 54 55 51 44 40 41 33 23 37 47 40 38 34 29 24 21 24 25 25 26 28 28 24 25 24 24 26 23 11 27 23 17 20 31 28 32 29
47 46 47 44 43 44 51 51 54 54 50 34 37 43 35 32 33 33 30 29 20 16 16 18 19 17 21 22 27 28 25 24 20 15 19 33 42 34 28 30 33 27 30 34
49 49 49 47 45 48 49 50 51 51 47 49 35 28 34 37 28 26 34 36 24 18 15 18 9 7 7 7 6 8 12 15 19 19 8 7 19 19 21 21 35 30 26 25
50 50 51 51 48 48 49 53 50 50 52 45 40 33 27 26 30 29 26 23 23 19 24 21 15 16 17 12 13 14 20 19 22 22 17 21 25 27 26 18 23 24 24 28
50 51 52 52 49 50 54 53 53 49 52 46 38 29 33 28 27 23 23 25 27 26 28 27 21 16 16 19 27 22 20 14 17 15 11 16 27 24 22 31 34 31 31 31
52 51 51 51 50 49 56 51 52 51 47 42 48 25 31 27 24 27 27 23 16 15 15 22 20 18 16 19 18 20 19 24 23 20 24 36 47 51 46 40 39 36 35 24
54 54 52 50 50 50 60 52 51 49 47 48 48 45 23 31 27 28 23 24 26 25 23 24 19 25 18 20 22 23 25 27 34 35 39 47 39 33 36 35 37 35 24 18
51 55 53 51 49 48 60 53 51 51 48 48 39 50 45 32 27 27 29 31 28 31 25 24 23 30 25 27 29 31 31 30 31 46 45 36 36 34 31 32 29 19 16 17
50 51 52 51 50 50 56 53 48 46 50 26 48 37 39 46 40 25 31 32 35 38 38 39 34 40 35 42 44 45 40 37 35 41 36 38 37 30 29 25 16 14 16 21
50 51 51 51 52 50 51 49 52 47 45 46 21 25 39 41 38 46 37 28 26 25 26 31 35 33 28 28 36 35 35 37 36 35 37 38 33 29 23 14 14 15 20 26
49 49 50 50 51 52 56 52 54 53 47 46 33 24 17 19 34 43 33 47 43 37 25 27 27 27 25 37 45 39 35 37 36 37 39 37 30 20 12 14 15 19 25 28
48 49 48 48 50 49 53 54 44 38 43 47 31 22 25 22 20 30 45 41 47 48 42 35 36 38 38 36 38 30 30 30 30 33 33 30 23 14 11 13 17 22 26 30
48 48 44 45 49 52 54 50 44 33 47 44 40 35 24 26 24 20 15 23 40 47 51 51 44 45 48 36 29 28 26 29 29 28 27 21 14 10 11 15 18 23 27 27
46 47 48 48 53 54 51 40 40 42 54 53 36 32 34 24 23 24 27 26 19 17 30 35 47 62 62 52 44 37 33 32 26 22 19 14 9 11 13 16 20 24 24 23
54 54 50 41 51 50 45 26 46 21 25 52 49 37 31 28 23 23 20 12 12 12 21 25 23 45 47 32 29 27 25 26 18 19 21 12 9 12 15 18 22 22 22 22
61 58 38 48 47 31 26 25 22 19 28 31 46 39 32 24 23 20 17 15 10 11 12 12 16 37 28 23 17 18 21 14 15 20 18 10 12 14 16 20 21 21 21 18
60 46 52 27 28 20 20 20 30 21 34 29 37 38 35 31 27 24 12 11 14 14 11 13 30 27 22 24 32 30 18 15 15 22 15 12 13 14 18 19 20 20 16 18
48 42 17 16 14 19 17 39 40 32 19 28 26 28 34 34 31 15 11 15 9 8 12 37 38 36 33 31 29 24 19 15 19 19 14 11 12 16 17 19 18 15 17 18
35 11 12 16 19 20 23 33 34 29 23 21 28 36 32 28 17 15 13 9 10 12 31 34 28 21 17 20 23 26 18 17 18 15 11 12 15 16 18 17 13 16 16 17
25 9 11 21 25 20 25 29 29 32 29 19 28 27 15 18 13 15 19 12 11 18 20 17 15 15 15 18 20 19 18 19 17 13 12 13 15 17 16 13 15 15 16 18
15 18 20 22 23 28 27 25 33 36 37 37 33 18 14 11 15 20 16 28 30 31 29 26 28 24 14 13 16 18 20 20 16 14 13 15 16 14 12 14 14 15 17 18
Wind_Direction
220 220 220 219 219 220 220 222 223 213 206 203 216 224 220 228 232 236 232 232 241 266 278 262 264 264 258 280 287 286 269 256 269 283 285 261 241 246 255 246 220 250 268 278
219 218 216 217 219 218 219 223 222 212 207 209 218 220 223 232 234 227 236 241 249 253 262 253 256 264 276 285 277 276 267 261 304 310 310 277 262 275 280 260 255 253 270 276
219 216 215 216 218 215 215 218 218 212 208 214 223 228 231 220 225 236 242 247 248 249 239 239 258 263 267 262 280 300 300 283 282 263 283 277 286 287 295 255 260 276 268 289
220 218 217 217 216 215 213 215 216 216 215 220 217 221 226 233 228 234 235 238 238 240 247 252 263 265 256 267 282 291 297 295 297 289 288 284 293 284 287 269 270 264 288 284
223 221 220 217 215 212 215 216 213 215 222 227 221 218 221 231 237 237 246 239 235 239 253 262 261 259 258 271 278 287 290 287 296 294 297 294 290 292 285 278 273 276 288 291
225 223 218 220 216 208 215 215 217 218 224 222 224 231 223 224 214 222 231 240 256 251 258 259 265 260 265 270 275 273 276 281 286 286 299 301 290 289 285 279 280 284 280 299
225 222 219 217 215 218 220 218 217 217 221 226 222 221 223 229 237 250 252 256 245 247 257 267 264 261 266 268 255 255 264 269 273 280 294 270 280 282 287 280 291 287 289 285
225 221 218 218 216 213 219 222 219 219 223 229 230 229 227 233 229 234 231 239 248 258 252 260 268 276 281 278 264 261 260 258 265 264 268 276 282 282 291 273 283 288 284 284
223 220 216 215 215 209 217 223 225 221 224 227 232 231 231 228 226 232 242 241 247 225 238 249 254 254 277 264 251 249 256 250 247 270 260 258 284 296 290 280 281 298 291 281
222 218 214 212 212 207 214 222 225 224 226 228 229 230 228 228 230 235 246 225 217 234 241 242 251 262 248 249 247 247 245 251 245 259 260 276 283 284 279 275 296 293 285 284
218 216 213 212 211 208 209 221 222 226 229 224 227 226 225 223 223 232 234 238 231 230 230 238 254 251 251 253 253 256 259 262 261 264 251 275 287 279 264 295 290 282 282 286
215 214 211 210 211 206 206 218 221 222 230 230 228 230 221 219 223 225 222 227 220 225 233 244 250 239 247 260 261 267 252 266 274 258 265 279 293 284 285 298 287 285 287 286
214 212 211 212 212 206 206 218 222 217 227 231 229 223 216 220 216 219 218 221 220 225 229 237 235 240 248 262 264 273 272 277 273 277 282 290 285 289 296 289 283 286 284 313
213 210 210 209 207 202 205 216 220 217 221 223 233 231 226 219 217 213 219 227 227 227 235 239 252 256 274 277 279 278 279 291 289 294 294 293 296 293 293 292 287 288 307 308
209 205 204 204 202 201 207 217 221 220 214 226 228 234 235 231 222 217 218 225 234 238 242 244 251 257 272 273 273 273 279 287 289 293 296 299 301 292 293 290 286 296 308 309
203 202 201 200 199 200 204 212 221 218 215 223 224 236 236 238 234 231 227 241 227 222 228 247 251 255 269 270 271 278 287 290 296 294 294 301 293 286 284 277 283 304 309 310
197 197 198 197 197 199 202 207 218 213 213 216 221 229 229 231 236 235 234 231 244 251 251 247 248 252 259 266 267 277 288 291 296 293 292 291 283 278 266 269 295 305 307 309
192 191 193 193 193 198 205 210 214 207 203 214 217 222 225 225 227 226 225 234 239 247 251 257 263 263 262 271 276 291 293 298 296 289 289 279 269 249 264 288 299 302 306 310
186 186 184 189 192 199 203 210 213 215 206 203 214 217 210 216 222 225 229 232 241 247 252 257 261 260 257 263 287 289 295 295 293 283 272 264 239 258 284 294 298 302 305 308
175 175 183 188 197 198 198 204 186 189 204 208 214 216 214 221 227 235 232 243 243 243 255 255 255 258 261 268 276 284 282 288 284 279 260 238 253 278 285 292 298 302 306 311
176 178 180 186 191 191 194 176 183 186 194 207 215 219 216 217 226 226 215 219 221 242 244 235 248 258 267 270 267 280 277 275 274 257 232 230 260 273 282 295 301 305 308 306
176 178 167 161 179 179 183 189 179 182 190 201 208 206 204 210 211 209 215 213 228 237 231 216 247 263 271 267 271 291 282 291 272 246 226 231 259 272 289 298 302 304 301 306
171 163 147 167 169 181 177 166 180 184 191 190 195 197 206 207 210 213 213 219 229 234 228 233 250 252 255 274 292 285 269 260 243 225 220 237 258 278 291 298 298 295 305 314
159 154 168 168 167 181 180 184 188 181 178 194 191 194 200 206 206 199 216 228 230 230 240 249 261 269 277 281 275 256 258 232 211 220 224 242 264 281 290 292 290 304 311 317
158 135 166 164 163 167 175 181 187 186 190 200 200 194 197 196 193 206 213 216 214 228 249 263 278 280 274 265 249 243 225 206 204 215 227 246 267 281 286 285 298 306 313 329
167 163 136 169 180 171 178 184 183 177 183 173 185 188 193 197 197 200 205 215 228 252 264 270 270 276 274 252 240 219 194 194 205 217 230 252 269 276 279 292 303 310 322 329
143 177 192 190 182 199 203 202 204 208 213 211 199 191 198 198 213 223 226 234 250 254 250 260 271 281 275 251 218 203 192 198 207 216 237 256 265 272 286 299 307 314 323 329